Find Starlink 2362

NORAD ID: 47902 Int'l Des: 2021-021 Owner: SPXS Country: US Constellation: starlink decayed
LEOCIRCULAR

Re-entered — Jan 20, 2025

正在加载3D地球...

About Starlink 2362

Starlink 2362 (NORAD 47902) is a starlink constellation satellite (v1.0) launched Mar 14, 2021 by SPXS of US. It re-entered the atmosphere on Jan 20, 2025. with a mass of 260.00 kg.

高度历史

Loading altitude history...

两行轨道根数

1 47902U 21021AU 25020.11108006 .09040649 12236-4 84754-3 0 9995
2 47902 53.0337 307.1597 0004563 208.4417 176.3888 16.37867760213661
Epoch: Jan 20, 2025 • Age: 14662 hours

当前状态

Position data unavailable
发射日期 Mar 14, 2021
运行时间 5.5 years
衰减日期 Jan 20, 2025
类型 internet

技术详情

分类 Payload
质量 260.00 kg
干质量 248.00 kg
长度 0.20 m
跨度 9.00 m
形状 ? Box + pan
制造商 SPXS
平台类型 Starlink
阶段状态 Unknown Transfer Status
所有者/国家 SPXS/US

Most Searched